Home > Weather > Nordhorn > Past weeks

Flag for Germany Past Weather in Nordhorn, Lower Saxony, Germany — Yesterday and Last 2 Weeks

Now
62 °F

Overcast.


Feels Like: 62 °F
Forecast: 54 / 65 °F
Wind: 1 mph from North

Location: Twenthe

Current Time: Jun 25, 2016 at 7:14:49 AM

Latest Report: Jun 25, 2016 at 6:00 AM


Visibility: 4 mi

Pressure: 30.00 "Hg

Humidity: 95%

Dew Point: 60 °F

Location of NordhornLocation

Past Weather in Nordhorn — Graph

°F

Nordhorn Temperature Yesterday

Maximum temperature yesterday: 77 °F (at 12:00 PM)
Minimum temperature yesterday: 64 °F (at 11:00 PM)
Average temperature yesterday: 70 °F

High & Low Weather Summary for the Past Weeks

 TemperatureHumidityPressure
High87 °F (Jun 23, 6:00 PM)100% (Jun 10, 6:00 AM)30.25 "Hg (Jun 10, 6:00 AM)
Low46 °F (Jun 10, 5:00 AM)45% (Jun 16, 6:00 PM)29.44 "Hg (Jun 14, 4:00 PM)
Average62 °F84%29.87 "Hg
* Reported Jun 10 5:00 AM — Jun 25 5:00 AM, Nordhorn, Weather by CustomWeather, © 2016

Note: Actual official high and low records may vary slightly from our data, if they occured in-between our weather recording intervals... More about our weather records

Advertising

Nordhorn Weather History for the Previous 24 Hours

Scroll right to see more
 ConditionsComfort  
Time TempWeatherWind HumidityBarometerVisibility
5:00 AM
Sat, Jun 25
62 °FOvercast.2 mph92%30.01 "Hg4 mi
4:00 AM63 °FOvercast.2 mph92%30.02 "Hg4 mi
3:00 AM64 °FLow clouds.3 mph95%30.03 "Hg2 mi
2:00 AM64 °FLow clouds.1 mph94%30.05 "Hg3 mi
1:00 AM65 °FOvercast.2 mph92%30.06 "Hg4 mi
12:00 AM66 °FFog.2 mph88%30.06 "Hg6 mi
11:00 PM
Fri, Jun 24
64 °FFog.2 mph94%30.05 "Hg6 mi
10:00 PM66 °FPassing clouds.1 mph90%30.06 "Hg7 mi
9:00 PM70 °FOvercast.3 mph78%30.05 "Hg9 mi
8:00 PM70 °FOvercast.2 mph80%30.05 "Hg9 mi
7:00 PM72 °FOvercast.2 mph77%30.05 "Hg8 mi
6:00 PM72 °FOvercast.2 mph77%30.04 "Hg7 mi
5:00 PM72 °FOvercast.6 mph79%30.04 "Hg7 mi
4:00 PM74 °FOvercast.3 mph75%30.05 "Hg11 mi
3:00 PM73 °FOvercast.5 mph80%30.04 "Hg8 mi
2:00 PM74 °FOvercast.3 mph82%30.04 "Hg5 mi
1:00 PM76 °FOvercast.5 mph78%30.03 "Hg7 mi
12:00 PM77 °FPartly sunny.3 mph76%30.03 "Hg16 mi
11:00 AM74 °FPartly sunny.2 mph81%30.03 "Hg14 mi
10:00 AM73 °FOvercast.2 mph86%30.03 "Hg19 mi
9:00 AM72 °FOvercast.2 mph89%30.01 "Hg19 mi
8:00 AM68 °FOvercast.5 mph96%30.03 "Hg22 mi
7:00 AM67 °FRain showers. Overcast.5 mph97%30.01 "Hg7 mi
Weather by CustomWeather, © 2016

See weather overviewHow to use our weather pages